{"data":{"norad_id":54640,"epoch":"2026-05-25T04:25:55.545888Z","epoch_age_seconds":63070,"freshness":"FRESH","line1":"1 54640U 22165A   26145.18467067  .00000365  00000+0  90042-4 0  9994","line2":"2 54640  98.2347  82.7501 0003128  81.7217 278.4336 14.57675279184062","mean_motion":14.57675279,"eccentricity":0.0003128,"inclination_deg":98.2347,"raan_deg":82.7501,"arg_perigee_deg":81.7217,"mean_anomaly_deg":278.4336,"bstar":9.0042e-5,"rev_number":18406,"period_min":98.787433713486,"perigee_km":698.47601852035,"apogee_km":702.90453286403,"semimajor_km":7078.8272756922,"source":"CELESTRAK","updated_at":"2026-05-25T13:37:58.669177Z"}}